Time,TemperatureF,DewpointF,PressureIn,WindDirection,WindDirectionDegrees,WindSpeedMPH,WindSpeedGustMPH,Humidity,HourlyPrecipIn,Conditions,Clouds,dailyrainin,SolarRadiationWatts/m^2,SoftwareType,DateUTC
2013-06-13 00:01:00,75.0,73.0,-100.00,WSW,239,2.0,4.0,92,0.00,,,0.00,0.000000,,2013-06-13 04:01:00,
2013-06-13 00:33:00,73.0,71.0,-100.00,WSW,243,1.0,2.0,95,0.00,,,0.00,0.000000,,2013-06-13 04:33:00,
2013-06-13 00:43:00,73.0,71.0,-100.00,WSW,243,1.0,2.0,95,0.00,,,0.00,0.000000,,2013-06-13 04:43:00,
2013-06-13 00:54:00,73.0,71.0,-100.00,WSW,243,1.0,2.0,95,0.00,,,0.00,0.000000,,2013-06-13 04:54:00,
2013-06-13 01:02:00,73.0,71.0,-100.00,WSW,243,1.0,2.0,95,0.00,,,0.00,0.000000,,2013-06-13 05:02:00,
2013-06-13 01:24:00,72.0,71.0,-100.00,WSW,258,1.0,3.0,97,0.00,,,0.00,0.000000,,2013-06-13 05:24:00,
2013-06-13 01:33:00,72.0,71.0,-100.00,WSW,258,1.0,3.0,97,0.00,,,0.00,0.000000,,2013-06-13 05:33:00,
2013-06-13 01:43:00,72.0,71.0,-100.00,WSW,258,1.0,3.0,97,0.00,,,0.00,0.000000,,2013-06-13 05:43:00,
2013-06-13 01:53:00,72.0,71.0,-100.00,WSW,258,1.0,3.0,97,0.00,,,0.00,0.000000,,2013-06-13 05:53:00,
2013-06-13 02:02:00,72.0,71.0,-100.00,WSW,258,1.0,3.0,97,0.00,,,0.00,0.000000,,2013-06-13 06:02:00,
2013-06-13 02:33:00,72.0,71.0,-100.00,NNW,336,0.0,2.0,98,0.00,,,0.00,0.000000,,2013-06-13 06:33:00,
2013-06-13 02:44:00,72.0,71.0,-100.00,NNW,336,0.0,2.0,98,0.00,,,0.00,0.000000,,2013-06-13 06:44:00,
2013-06-13 02:52:00,72.0,71.0,-100.00,NNW,336,0.0,2.0,98,0.00,,,0.00,0.000000,,2013-06-13 06:52:00,
2013-06-13 03:01:00,72.0,71.0,-100.00,NNW,336,0.0,2.0,98,0.00,,,0.00,0.000000,,2013-06-13 07:01:00,
2013-06-13 03:22:00,72.0,71.0,-100.00,NNE,12,1.0,4.0,96,0.00,,,0.00,0.000000,,2013-06-13 07:22:00,
2013-06-13 03:33:00,72.0,71.0,-100.00,NNE,12,1.0,4.0,96,0.00,,,0.00,0.000000,,2013-06-13 07:33:00,
2013-06-13 03:42:00,72.0,71.0,-100.00,NNE,12,1.0,4.0,96,0.00,,,0.00,0.000000,,2013-06-13 07:42:00,
2013-06-13 03:52:00,72.0,71.0,-100.00,NNE,12,1.0,4.0,96,0.00,,,0.00,0.000000,,2013-06-13 07:52:00,
2013-06-13 04:01:00,72.0,71.0,-100.00,NNE,12,1.0,4.0,96,0.00,,,0.00,0.000000,,2013-06-13 08:01:00,
2013-06-13 04:22:00,72.0,71.0,-100.00,North,351,1.0,2.0,98,0.00,,,0.00,0.000000,,2013-06-13 08:22:00,
2013-06-13 04:32:00,72.0,71.0,-100.00,North,351,1.0,2.0,98,0.00,,,0.00,0.000000,,2013-06-13 08:32:00,
2013-06-13 04:43:00,72.0,71.0,-100.00,North,351,1.0,2.0,98,0.00,,,0.00,0.000000,,2013-06-13 08:43:00,
2013-06-13 04:52:00,72.0,71.0,-100.00,North,351,1.0,2.0,98,0.00,,,0.00,0.000000,,2013-06-13 08:52:00,
2013-06-13 05:02:00,72.0,71.0,-100.00,North,351,1.0,2.0,98,0.00,,,0.00,0.000000,,2013-06-13 09:02:00,
2013-06-13 05:32:00,70.0,70.0,-100.00,North,7,1.0,3.0,99,0.00,,,0.00,0.000000,,2013-06-13 09:32:00,
2013-06-13 05:42:00,70.0,70.0,-100.00,North,7,1.0,3.0,99,0.00,,,0.00,0.000000,,2013-06-13 09:42:00,
2013-06-13 05:52:00,70.0,70.0,-100.00,North,7,1.0,3.0,99,0.00,,,0.00,0.000000,,2013-06-13 09:52:00,
2013-06-13 06:01:00,70.0,70.0,-100.00,North,7,1.0,3.0,99,0.00,,,0.00,0.000000,,2013-06-13 10:01:00,
2013-06-13 06:22:00,68.0,68.0,-100.00,WSW,244,0.0,3.0,99,0.00,,,0.00,0.000000,,2013-06-13 10:22:00,
2013-06-13 06:33:00,68.0,68.0,-100.00,WSW,244,0.0,3.0,99,0.00,,,0.00,0.000000,,2013-06-13 10:33:00,
2013-06-13 06:43:00,68.0,68.0,-100.00,WSW,244,0.0,3.0,99,0.00,,,0.00,0.000000,,2013-06-13 10:43:00,
2013-06-13 06:53:00,68.0,68.0,-100.00,WSW,244,0.0,3.0,99,0.00,,,0.00,0.000000,,2013-06-13 10:53:00,
2013-06-13 07:02:00,68.0,68.0,-100.00,WSW,244,0.0,3.0,99,0.00,,,0.00,0.000000,,2013-06-13 11:02:00,
2013-06-13 07:24:00,69.0,69.0,-100.00,SW,233,2.0,4.0,100,0.00,,,0.00,16.000000,,2013-06-13 11:24:00,
2013-06-13 07:32:00,69.0,69.0,-100.00,SW,233,2.0,4.0,100,0.00,,,0.00,16.000000,,2013-06-13 11:32:00,
2013-06-13 07:42:00,69.0,69.0,-100.00,SW,233,2.0,4.0,100,0.00,,,0.00,16.000000,,2013-06-13 11:42:00,
2013-06-13 07:52:00,69.0,69.0,-100.00,SW,233,2.0,4.0,100,0.00,,,0.00,16.000000,,2013-06-13 11:52:00,
2013-06-13 08:01:00,69.0,69.0,-100.00,SW,233,2.0,4.0,100,0.00,,,0.00,16.000000,,2013-06-13 12:01:00,
2013-06-13 08:22:00,73.0,73.0,-100.00,SSW,206,3.0,4.0,99,0.00,,,0.00,38.000000,,2013-06-13 12:22:00,
2013-06-13 08:35:00,73.0,73.0,-100.00,SSW,206,3.0,4.0,99,0.00,,,0.00,38.000000,,2013-06-13 12:35:00,
2013-06-13 08:43:00,73.0,73.0,-100.00,SSW,206,3.0,4.0,99,0.00,,,0.00,38.000000,,2013-06-13 12:43:00,
2013-06-13 08:52:00,73.0,73.0,-100.00,SSW,206,3.0,4.0,99,0.00,,,0.00,38.000000,,2013-06-13 12:52:00,
2013-06-13 09:01:00,73.0,73.0,-100.00,SSW,206,3.0,4.0,99,0.00,,,0.00,38.000000,,2013-06-13 13:01:00,
2013-06-13 09:33:00,78.0,71.0,-100.00,SW,229,2.0,5.0,79,0.00,,,0.00,86.000000,,2013-06-13 13:33:00,
2013-06-13 09:43:00,78.0,71.0,-100.00,SW,229,2.0,5.0,79,0.00,,,0.00,86.000000,,2013-06-13 13:43:00,
2013-06-13 09:53:00,78.0,71.0,-100.00,SW,229,2.0,5.0,79,0.00,,,0.00,86.000000,,2013-06-13 13:53:00,
2013-06-13 10:02:00,78.0,71.0,-100.00,SW,229,2.0,5.0,79,0.00,,,0.00,86.000000,,2013-06-13 14:02:00,
2013-06-13 10:33:00,83.0,69.0,-100.00,SW,233,6.0,10.0,63,0.00,,,0.00,616.000000,,2013-06-13 14:33:00,
2013-06-13 10:43:00,83.0,69.0,-100.00,SW,233,6.0,10.0,63,0.00,,,0.00,616.000000,,2013-06-13 14:43:00,
2013-06-13 10:53:00,83.0,69.0,-100.00,SW,233,6.0,10.0,63,0.00,,,0.00,616.000000,,2013-06-13 14:53:00,
2013-06-13 11:02:00,83.0,69.0,-100.00,SW,233,6.0,10.0,63,0.00,,,0.00,616.000000,,2013-06-13 15:02:00,
2013-06-13 11:22:00,86.0,68.0,-100.00,SW,223,6.0,11.0,56,0.00,,,0.00,822.000000,,2013-06-13 15:22:00,
2013-06-13 11:33:00,86.0,68.0,-100.00,SW,223,6.0,11.0,56,0.00,,,0.00,822.000000,,2013-06-13 15:33:00,
2013-06-13 11:43:00,86.0,68.0,-100.00,SW,223,6.0,11.0,56,0.00,,,0.00,822.000000,,2013-06-13 15:43:00,
2013-06-13 11:53:00,86.0,68.0,-100.00,SW,223,6.0,11.0,56,0.00,,,0.00,822.000000,,2013-06-13 15:53:00,
2013-06-13 12:02:00,86.0,68.0,-100.00,SW,223,6.0,11.0,56,0.00,,,0.00,822.000000,,2013-06-13 16:02:00,
2013-06-13 12:22:00,89.0,65.0,-100.00,SW,236,10.0,18.0,46,0.00,,,-99.99,968.000000,,2013-06-13 16:22:00,
2013-06-13 12:33:00,89.0,65.0,-100.00,SW,236,10.0,18.0,46,0.00,,,-99.99,968.000000,,2013-06-13 16:33:00,
2013-06-13 12:43:00,89.0,65.0,-100.00,SW,236,10.0,18.0,46,0.00,,,-99.99,968.000000,,2013-06-13 16:43:00,
2013-06-13 12:54:00,89.0,65.0,-100.00,SW,236,10.0,18.0,46,0.00,,,-99.99,968.000000,,2013-06-13 16:54:00,
2013-06-13 13:02:00,89.0,65.0,-100.00,SW,236,10.0,18.0,46,0.00,,,-99.99,968.000000,,2013-06-13 17:02:00,
2013-06-13 13:33:00,88.0,67.0,-100.00,SSW,194,9.0,19.0,50,0.00,,,0.00,1041.000000,,2013-06-13 17:33:00,
2013-06-13 13:43:00,88.0,67.0,-100.00,SSW,194,9.0,19.0,50,0.00,,,0.00,1041.000000,,2013-06-13 17:43:00,
2013-06-13 13:53:00,88.0,67.0,-100.00,SSW,194,9.0,19.0,50,0.00,,,0.00,1041.000000,,2013-06-13 17:53:00,
2013-06-13 14:02:00,88.0,67.0,-100.00,SSW,194,9.0,19.0,50,0.00,,,0.00,1041.000000,,2013-06-13 18:02:00,
2013-06-13 14:33:00,90.0,69.0,-100.00,SW,230,8.0,20.0,51,0.00,,,0.00,1053.000000,,2013-06-13 18:33:00,
2013-06-13 14:43:00,90.0,69.0,-100.00,SW,230,8.0,20.0,51,0.00,,,0.00,1053.000000,,2013-06-13 18:43:00,
2013-06-13 14:52:00,90.0,69.0,-100.00,SW,230,8.0,20.0,51,0.00,,,0.00,1053.000000,,2013-06-13 18:52:00,
2013-06-13 15:01:00,90.0,69.0,-100.00,SW,230,8.0,20.0,51,0.00,,,0.00,1053.000000,,2013-06-13 19:01:00,
2013-06-13 15:23:00,91.0,69.0,-100.00,SW,226,8.0,15.0,48,0.00,,,0.00,977.000000,,2013-06-13 19:23:00,
2013-06-13 15:33:00,91.0,69.0,-100.00,SW,226,8.0,15.0,48,0.00,,,0.00,977.000000,,2013-06-13 19:33:00,
2013-06-13 15:43:00,91.0,69.0,-100.00,SW,226,8.0,15.0,48,0.00,,,0.00,977.000000,,2013-06-13 19:43:00,
2013-06-13 15:53:00,91.0,69.0,-100.00,SW,226,8.0,15.0,48,0.00,,,0.00,977.000000,,2013-06-13 19:53:00,
2013-06-13 16:02:00,91.0,69.0,-100.00,SW,226,8.0,15.0,48,0.00,,,0.00,977.000000,,2013-06-13 20:02:00,
2013-06-13 16:22:00,69.0,57.0,-100.00,WNW,287,8.0,37.0,66,0.15,,,0.15,320.000000,,2013-06-13 20:22:00,
2013-06-13 17:34:00,70.0,61.0,-100.00,West,271,4.0,16.0,73,0.01,,,-99.99,19.000000,,2013-06-13 21:34:00,
2013-06-13 17:43:00,70.0,61.0,-100.00,West,271,4.0,16.0,73,0.01,,,-99.99,19.000000,,2013-06-13 21:43:00,
2013-06-13 17:52:00,70.0,61.0,-100.00,West,271,4.0,16.0,73,0.01,,,-99.99,19.000000,,2013-06-13 21:52:00,
2013-06-13 18:02:00,70.0,61.0,-100.00,West,271,4.0,16.0,73,0.01,,,-99.99,19.000000,,2013-06-13 22:02:00,
2013-06-13 18:22:00,74.0,61.0,-100.00,West,270,4.0,16.0,65,0.00,,,0.16,186.000000,,2013-06-13 22:22:00,
2013-06-13 18:33:00,74.0,61.0,-100.00,West,270,4.0,16.0,65,0.00,,,0.16,186.000000,,2013-06-13 22:33:00,
2013-06-13 18:43:00,74.0,61.0,-100.00,West,270,4.0,16.0,65,0.00,,,0.16,186.000000,,2013-06-13 22:43:00,
2013-06-13 18:52:00,74.0,61.0,-100.00,West,270,4.0,16.0,65,0.00,,,0.16,186.000000,,2013-06-13 22:52:00,
2013-06-13 19:02:00,74.0,61.0,-100.00,West,270,4.0,16.0,65,0.00,,,0.16,186.000000,,2013-06-13 23:02:00,
2013-06-13 19:22:00,75.0,62.0,-100.00,NW,320,6.0,12.0,65,0.00,,,0.16,185.000000,,2013-06-13 23:22:00,
2013-06-13 19:32:00,75.0,62.0,-100.00,NW,320,6.0,12.0,65,0.00,,,0.16,185.000000,,2013-06-13 23:32:00,
2013-06-13 19:43:00,75.0,62.0,-100.00,NW,320,6.0,12.0,65,0.00,,,0.16,185.000000,,2013-06-13 23:43:00,
2013-06-13 19:52:00,75.0,62.0,-100.00,NW,320,6.0,12.0,65,0.00,,,0.16,185.000000,,2013-06-13 23:52:00,
2013-06-13 20:01:00,75.0,62.0,-100.00,NW,320,6.0,12.0,65,0.00,,,0.16,185.000000,,2013-06-14 00:01:00,
2013-06-13 20:22:00,74.0,63.0,-100.00,SSW,209,3.0,10.0,69,0.00,,,0.16,104.000000,,2013-06-14 00:22:00,
2013-06-13 20:34:00,74.0,63.0,-100.00,SSW,209,3.0,10.0,69,0.00,,,0.16,104.000000,,2013-06-14 00:34:00,
2013-06-13 20:43:00,74.0,63.0,-100.00,SSW,209,3.0,10.0,69,0.00,,,0.16,104.000000,,2013-06-14 00:43:00,
2013-06-13 20:53:00,74.0,63.0,-100.00,SSW,209,3.0,10.0,69,0.00,,,0.16,104.000000,,2013-06-14 00:53:00,
2013-06-13 21:01:00,74.0,63.0,-100.00,SSW,209,3.0,10.0,69,0.00,,,0.16,104.000000,,2013-06-14 01:01:00,
2013-06-13 21:22:00,73.0,62.0,-100.00,WSW,257,5.0,8.0,69,0.00,,,0.16,21.000000,,2013-06-14 01:22:00,
2013-06-13 21:33:00,73.0,62.0,-100.00,WSW,257,5.0,8.0,69,0.00,,,0.16,21.000000,,2013-06-14 01:33:00,
2013-06-13 21:43:00,73.0,62.0,-100.00,WSW,257,5.0,8.0,69,0.00,,,0.16,21.000000,,2013-06-14 01:43:00,
2013-06-13 21:53:00,73.0,62.0,-100.00,WSW,257,5.0,8.0,69,0.00,,,0.16,21.000000,,2013-06-14 01:53:00,
2013-06-13 22:02:00,73.0,62.0,-100.00,WSW,257,5.0,8.0,69,0.00,,,0.16,21.000000,,2013-06-14 02:02:00,
2013-06-13 22:22:00,71.0,62.0,-100.00,WNW,295,4.0,7.0,74,0.00,,,0.16,0.000000,,2013-06-14 02:22:00,
2013-06-13 22:33:00,71.0,62.0,-100.00,WNW,295,4.0,7.0,74,0.00,,,0.16,0.000000,,2013-06-14 02:33:00,
2013-06-13 22:43:00,71.0,62.0,-100.00,WNW,295,4.0,7.0,74,0.00,,,0.16,0.000000,,2013-06-14 02:43:00,
2013-06-13 22:53:00,71.0,62.0,-100.00,WNW,295,4.0,7.0,74,0.00,,,0.16,0.000000,,2013-06-14 02:53:00,
2013-06-13 23:02:00,71.0,62.0,-100.00,WNW,295,4.0,7.0,74,0.00,,,0.16,0.000000,,2013-06-14 03:02:00,
2013-06-13 23:22:00,72.0,63.0,-100.00,WNW,285,4.0,8.0,73,0.00,,,0.16,0.000000,,2013-06-14 03:22:00,
2013-06-13 23:34:00,72.0,63.0,-100.00,WNW,285,4.0,8.0,73,0.00,,,0.16,0.000000,,2013-06-14 03:34:00,
2013-06-13 23:43:00,72.0,63.0,-100.00,WNW,285,4.0,8.0,73,0.00,,,0.16,0.000000,,2013-06-14 03:43:00,
2013-06-13 23:53:00,72.0,63.0,-100.00,WNW,285,4.0,8.0,73,0.00,,,0.16,0.000000,,2013-06-14 03:53:00,